Location: Hambach
(50.0989°N, 10.2075°E)
Time: 05:44:01
(UTC+00:00)

Daily predictions for brighter satellites

Satellite Brightness Start Highest point End
(mag) Time Altitude Azimuth Time Altitude Azimuth Time Altitude Azimuth
Cosmos 1726 Rocket 4.3 00:07:11 46° ENE 00:07:11 46° ENE 00:10:35 10° NNE
Cosmos 1331 Rocket 4.5 00:06:53 48° WNW 00:07:16 50° WNW 00:12:24 10° NNE
ATLAS 2AS CENTAUR R/B 3.0 00:09:45 37° WSW 00:12:26 61° NW 00:19:12 10° NE
IDEFIX/ARIANE 42P 3.9 00:11:22 10° NE 00:15:47 28° E 00:16:41 26° ESE
Meteor 1-5 Rocket 4.1 00:15:36 10° NNW 00:20:58 68° W 00:20:58 68° W
Cosmos 1953 Rocket 3.8 00:18:13 10° N 00:22:18 66° NE 00:22:18 66° NE
Cosmos 1980 Rocket 2.7 00:19:31 10° NW 00:24:20 45° W 00:24:20 45° W
USA 234 3.9 00:20:15 10° E 00:26:35 54° NNE 00:32:56 10° WNW
Cosmos 44 Rocket 3.9 00:29:47 48° ESE 00:29:47 48° ESE 00:34:32 10° NE
COSMOS 2406 3.9 00:32:29 39° SE 00:33:18 42° ESE 00:38:41 10° NE
Cosmos 1825 Rocket 4.3 00:29:09 10° NNW 00:32:19 42° NW 00:32:19 42° NW
Meteor 2-10 4.2 00:30:30 10° NNW 00:35:54 59° W 00:36:02 59° WSW
Cosmos 2369 3.6 00:30:41 10° NNW 00:36:21 70° WSW 00:36:37 69° SW
Cosmos 1634 Rocket 4.0 00:35:56 52° SSE 00:37:23 71° E 00:43:32 10° NNE
Cosmos 724 4.3 00:44:49 59° S 00:45:48 70° SE 00:51:45 10° NE
Cosmos 2084 3.8 00:46:23 57° NNW 00:46:23 57° NNW 00:50:15 10° NE
Spot 1 4.0 00:43:18 10° NNE 00:47:07 76° NNE 00:47:07 76° NNE
Cosmos 1607 4.0 00:47:22 52° SSE 00:48:30 61° ESE 00:54:40 10° NE
Cosmos-2242 3.0 00:52:12 77° NE 00:52:12 77° NE 00:56:09 10° NNE
Cosmos 2360 Rocket 3.3 00:46:38 10° NNW 00:52:04 43° NE 00:57:28 10° ESE
Cosmos 2333 Rocket 2.5 00:47:34 10° NNW 00:53:14 67° ENE 00:57:05 21° SE
FENGYUN 3A 4.4 00:49:49 10° NNE 00:55:01 44° E 00:56:43 34° SE
USA 281 3.2 00:51:27 27° SSE 00:55:17 86° ENE 01:01:54 10° NNW
Cosmos 2082 Rocket 2.3 00:59:24 54° WSW 01:00:38 70° WNW 01:06:23 10° NNE
Cosmos 1842 4.3 01:02:43 33° ENE 01:02:43 33° ENE 01:05:05 10° NNE
Meteor 2-2 Rocket 4.1 01:02:52 55° S 01:04:10 87° E 01:09:51 10° NNE
Cosmos 2279 Rocket 4.0 01:03:59 45° S 01:06:04 80° E 01:12:20 10° NNE
Cosmos 2278 3.8 01:01:17 10° NNW 01:07:02 76° ENE 01:11:11 19° SE
Cosmos 2322 Rocket 2.7 01:01:54 10° NNW 01:07:29 57° NE 01:13:02 10° SE
Cosmos 1486 Rocket 3.9 01:02:33 10° NNW 01:07:48 86° ENE 01:09:36 42° SSE
NPP 4.0 01:02:53 10° NNE 01:08:13 58° E 01:09:56 40° SSE
Cosmos 2221 3.4 01:07:40 34° ESE 01:08:28 38° E 01:12:18 10° NNE
Resurs 1-4 Rocket 3.9 01:04:34 10° NE 01:08:49 24° E 01:12:17 13° SE
NOSS 3-3 (A) 3.8 01:14:12 48° S 01:15:26 62° SE 01:21:32 10° NE
ACS3 Solar Sail 2.0 01:10:51 10° N 01:16:44 58° WNW 01:18:33 42° SW
Cosmos 1777 Rocket 3.9 01:13:08 10° NNW 01:18:27 89° WSW 01:20:41 36° SSE
Cosmos 2219 Rocket 3.3 01:15:59 10° NNW 01:21:24 45° NE 01:26:47 10° SE
SL-16 R/B 2.1 01:16:54 10° NNW 01:22:34 72° WSW 01:24:53 37° S
CZ-4C R/B 2.2 01:22:06 44° W 01:23:17 58° NW 01:28:53 10° NE
H-2A R/B 4.1 01:19:31 10° NE 01:23:28 22° E 01:27:28 10° SE
GP-B 3.9 01:19:30 10° NNW 01:23:25 36° WNW 01:23:25 36° WNW
Meteor 1-11 Rocket 4.4 01:17:56 10° N 01:23:44 54° ENE 01:29:13 11° SSE
Cosmos 2180 Rocket 4.5 01:22:10 36° S 01:24:50 78° E 01:31:03 10° NNE
Cosmos 1271 Rocket 3.1 01:27:38 44° ESE 01:27:53 45° E 01:31:14 10° NNE
Meteor 1-14 Rocket 4.2 01:23:56 10° NNW 01:29:43 90° SSW 01:32:37 30° S
ATLAS 3B R/B 4.0 01:24:10 10° WNW 01:29:24 24° WSW 01:29:24 24° WSW
SL-4 R/B 2.5 01:31:34 40° SE 01:31:34 40° SE 01:34:10 10° ESE
USA 267 3.8 01:25:05 10° ENE 01:31:20 45° SE 01:34:01 31° S
NOSS 3-3 (C) 3.8 01:30:27 43° SSW 01:32:10 67° SE 01:38:24 10° NE
Cosmos 2058 Rocket 3.5 01:32:04 44° W 01:32:27 46° WNW 01:36:43 10° N
Cosmos 2266 Rocket 3.9 01:29:08 10° N 01:35:18 87° E 01:39:09 24° S
Cosmos 1470 2.5 01:33:21 10° NNW 01:36:16 63° NW 01:36:16 63° NW
Gbstr 26 Del rocket 2.5 01:37:23 68° SSE 01:37:23 68° SSE 01:40:47 10° ESE
KORONAS-FOTON 4.1 01:38:28 45° NW 01:38:28 45° NW 01:41:18 10° N
USA 290 4.0 01:37:48 22° ESE 01:38:15 23° ESE 01:40:51 10° NE
Cosmos 909 Rocket 4.5 01:37:58 29° WSW 01:41:03 54° NW 01:47:25 10° NE
Cosmos 1536 4.1 01:44:39 10° NNW 01:46:48 23° WNW 01:46:48 23° WNW
Cosmos 2333 4.2 01:42:21 10° NNW 01:48:04 84° ENE 01:53:47 10° SSE
DMSP B5D2-2 4.1 01:45:23 16° SSE 01:49:31 82° ENE 01:54:44 10° NNW
Cosmos 1655 Rocket 4.5 01:44:12 10° N 01:50:23 61° ENE 01:56:31 10° SSE
Cosmos 1812 Rocket 3.5 01:49:34 40° S 01:51:05 82° E 01:55:26 10° NNE
Meteor 2-6 Rocket 4.4 01:49:06 36° SW 01:51:27 63° WNW 01:57:19 10° N
NOSS 3-4 (A) 3.9 01:46:15 10° NW 01:52:50 77° NE 02:00:39 10° SE
NOSS 3-4 (C) 4.0 01:46:47 10° NW 01:53:23 76° NE 02:01:13 10° SE
IDEFIX/ARIANE 42P 3.0 01:50:29 10° N 01:55:28 49° WNW 01:57:22 33° WSW
ISS -1.1 01:56:14 11° SE 01:56:29 11° SE 01:57:21 10° ESE
COSMOS 2441 4.2 01:52:47 10° NNE 01:57:36 87° WNW 01:59:44 33° SSW
Envisat 3.3 01:53:07 10° NNE 01:58:11 63° ESE 02:01:23 22° S
Meteor 2-20 4.5 01:54:40 24° S 01:58:34 84° E 02:04:45 10° NNE
Aureole 1 Rocket 3.5 01:55:23 10° NNW 01:59:26 65° ENE 02:04:31 10° SSE
Cosmos 1707 4.4 02:03:05 14° NW 02:03:05 14° NW 02:04:07 10° NNW
Cosmos 2084 Rocket 3.2 01:58:58 10° NW 02:03:10 76° SW 02:07:24 10° SE
ATLAS 2AS CENTAUR R/B 4.3 01:58:45 10° WNW 02:04:38 29° NNW 02:10:27 10° NE
SWARM C 4.4 02:02:10 10° N 02:05:26 82° E 02:06:24 42° S
SWARM A 4.4 02:02:15 10° N 02:05:30 69° E 02:06:47 33° SSE
Iridium 4 Rocket 3.3 02:03:00 26° S 02:05:40 90° E 02:10:48 10° N
MOZ.5/SAFIR/RUBIN 5/SL-8 3.9 02:05:32 31° SSW 02:07:28 53° W 02:12:02 10° NNW
Meteor 1-27 Rocket 4.2 02:03:31 16° S 02:08:19 65° E 02:14:11 10° NNE
H-2A R/B 2.0 02:06:26 22° SSE 02:08:39 86° ENE 02:12:15 10° NNW
USA 234 3.2 02:02:50 10° ESE 02:09:24 86° SSW 02:16:00 10° WNW
Cosmos 1975 3.1 02:06:59 10° NNW 02:10:23 38° W 02:10:36 37° WSW
Cosmos 990 Rocket 3.9 02:06:01 10° NNW 02:11:05 62° WSW 02:15:53 11° S
Cosmos 44 Rocket 4.3 02:08:21 22° W 02:11:07 39° NW 02:16:01 10° NNE
ADEOS II 2.8 02:06:36 10° NNE 02:11:42 50° E 02:16:28 12° S
Cosmos 1763 Rocket 3.5 02:13:16 28° SSW 02:16:06 77° WNW 02:21:26 10° NNE
Cosmos 1238 Rocket 2.7 02:15:05 29° SSE 02:16:16 52° E 02:19:12 10° NNE
ALOS 2.4 02:11:45 10° NNE 02:16:18 70° ESE 02:19:31 19° S
COSMOS 2406 4.0 02:14:30 23° WSW 02:17:37 42° NW 02:23:05 10° NNE
CZ-2D R/B 2.2 02:15:03 10° NNE 02:20:20 77° ESE 02:24:32 17° S
COSMOS 2428 3.9 02:14:56 10° NNW 02:20:25 45° NE 02:25:52 10° SE
SL-16 R/B 3.6 02:15:22 10° SE 02:21:20 48° ENE 02:27:18 10° N
ADEOS Rocket 3.7 02:15:50 10° N 02:23:13 61° WNW 02:28:49 20° SW
Sich 1 4.5 02:21:19 10° N 02:25:12 36° ENE 02:29:02 10° SE
Spot 2 4.3 02:23:38 10° S 02:28:26 73° WSW 02:33:25 10° NNW
Cosmos 1898 Rocket 3.8 02:24:03 10° NNW 02:29:13 70° ENE 02:34:22 10° SSE
Cosmos 1354 Rocket 4.4 02:28:35 10° NW 02:33:31 41° WSW 02:38:18 11° S
Cosmos 1937 Rocket 4.2 02:28:36 10° NNW 02:33:45 58° ENE 02:38:50 10° SE
Cosmos 2360 Rocket 2.6 02:30:47 10° NW 02:36:01 39° WSW 02:41:13 10° S
Cosmos 2333 Rocket 3.3 02:32:36 10° NW 02:37:02 24° WSW 02:39:00 20° SW
SL-19 R/B 4.4 02:31:53 10° NNE 02:37:35 81° ESE 02:43:25 11° SSW
Alouette 2 Rocket 3.2 02:33:46 10° NNW 02:37:54 66° W 02:41:25 10° S
USA 305 3.2 02:38:24 15° NW 02:39:06 17° NNW 02:40:09 10° NE
EP 1 4.1 02:37:31 10° NW 02:40:06 64° SW 02:42:52 10° SSE
USA 281 4.3 02:38:17 19° SW 02:40:31 22° W 02:45:29 10° NW
Meteor 2-10 Rocket 3.7 02:38:20 10° N 02:43:28 74° ENE 02:48:43 10° SSE
Cosmos 540 Rocket 3.8 02:41:18 20° SW 02:44:41 52° WNW 02:49:44 10° NNE
H-2A R/B 3.6 02:41:33 10° NNE 02:45:09 31° E 02:48:41 10° SSE
Cosmos 2221 3.8 02:43:58 18° WSW 02:45:37 23° WNW 02:48:58 10° NNW
Cosmos 2082 Rocket 4.1 02:41:43 10° W 02:45:46 19° NW 02:49:51 10° N
Cosmos 1553 Rocket 4.3 02:41:40 10° S 02:47:48 69° E 02:54:05 10° NNE
Resurs 1-4 Rocket 2.3 02:43:44 10° N 02:48:57 59° WNW 02:53:19 15° SW
USA 276 3.1 02:50:08 14° SE 02:50:08 14° SE 02:50:31 10° SE
Cosmos 468 Rocket 4.0 02:46:38 16° SSW 02:50:55 76° WNW 02:56:15 10° NNE
Cosmos 2322 Rocket 3.0 02:46:27 10° NW 02:51:10 28° WSW 02:55:54 10° SSW
BREEZE-M DEB (TANK) 3.2 02:50:12 14° W 02:52:42 70° S 03:01:17 10° ESE
DNEPR-1 R/B 4.5 02:49:20 10° NW 02:54:32 50° WSW 03:00:50 10° SSE
CZ-2C R/B 4.4 02:52:13 10° NE 02:56:23 27° E 03:00:24 10° SSE
Cosmos 1766 Rocket 3.9 02:52:50 10° NNW 02:56:59 44° W 03:01:04 10° SSW
ACS3 Solar Sail 3.7 02:55:17 10° NNW 02:57:57 13° NW 03:00:39 10° WNW
Cosmos 1833 4.4 02:53:59 15° SW 02:58:38 64° WNW 03:04:18 10° NNE
Cosmos 1271 Rocket 4.5 03:01:02 12° W 03:02:23 15° WNW 03:04:28 10° NNW
H-2A R/B 2.2 02:58:05 10° N 03:03:08 62° WNW 03:08:19 10° SSW
CRYOSAT 2 4.4 02:59:22 10° S 03:04:10 60° W 03:09:02 10° N
Cosmos 2219 Rocket 2.7 03:00:07 10° NW 03:05:15 37° WSW 03:10:23 10° S
Cosmos 2237 Rocket 3.6 03:00:00 10° NNW 03:05:26 43° NE 03:10:50 10° ESE
SL-16 R/B 3.9 03:03:21 10° WNW 03:05:36 12° W 03:06:39 12° WSW
RESURS DK-1 4.2 03:02:55 10° NNW 03:06:35 34° NE 03:10:14 10° ESE
SL-4 R/B 3.2 03:05:08 13° W 03:07:16 19° SW 03:10:02 10° S
SL-14 R/B 3.7 03:05:23 10° S 03:09:13 64° E 03:13:05 10° NNE
USA 290 3.6 03:10:18 14° WSW 03:12:19 24° NW 03:15:00 10° N
CZ-4C R/B 4.0 03:08:33 10° WNW 03:12:45 25° NNW 03:17:55 10° NE
ARGOS 3.3 03:08:44 10° NNE 03:14:10 81° ESE 03:19:32 10° SSW
USA 267 3.4 03:08:05 10° ENE 03:14:39 77° NNW 03:21:12 10° WSW
Cosmos 1408 Rocket 3.8 03:10:54 10° N 03:15:12 72° ENE 03:19:28 10° SSE
Cosmos 1745 Rocket 4.2 03:09:43 10° N 03:15:54 75° ENE 03:22:02 10° SSE
METEOR-M 4.2 03:11:27 10° N 03:16:46 69° WNW 03:22:02 10° SSW
Gbstr 26 Del rocket 4.1 03:20:08 10° W 03:22:46 18° SW 03:25:25 10° S
Cosmos 2322 3.7 03:20:06 10° NW 03:25:46 64° WSW 03:31:23 10° SSE
NOSS 3 (A) 4.1 03:29:14 10° NW 03:31:32 64° SW 03:34:29 10° SSE
ISS -3.1 03:29:23 10° SW 03:32:39 47° SSE 03:35:56 10° ENE
UNK 4.4 03:30:08 10° SSE 03:34:40 63° ENE 03:39:12 10° N
Envisat 4.4 03:32:48 10° N 03:36:42 23° WNW 03:40:36 10° WSW
BREEZE-M DEB (TANK) 2.6 03:32:17 10° WSW 03:38:02 50° SSE 03:40:40 10° E
Meteor 2-4 Rocket 4.4 03:35:22 10° SW 03:40:16 35° WNW 03:45:10 10° N
